Regional Weather Roundup
Issued by NWS

Home | Current Version | Previous Version | Graphics & Text | Print | Product List | Glossary Off
Versions: 1 2 3 4 5 6 7 8 9 10 11 12 13 14 15 16 17 18 19 20 21 22 23 24 25 26 27 28 29 30 31 32 33 34 35 36 37 38 39 40 41 42 43 44 45 46 47 48 49 50

000
ASUS43 KDTX 070801
RWRMI
MICHIGAN HOURLY REGIONAL WEATHER ROUNDUP
NATIONAL WEATHER SERVICE DETROIT/PONTIAC MI
400 AM EDT TUE JUL 07 2015

NOTE: "FAIR" INDICATES FEW OR NO CLOUDS BELOW 12,000 FEET WITH NO
SIGNIFICANT WEATHER AND/OR OBSTRUCTION TO VISIBILITY.

MIZ047>049-052>055-059>063-066>070-074>076-081>083-070900-
SOUTHEAST LOWER MICHIGAN

CITY           SKY/WX    TMP DP  RH WIND       PRES   REMARKS
ADRIAN         CLOUDY    71  67  87 SW7       29.89F
ALMA           RAIN      71  70  97 S5        29.83F
ANN ARBOR      CLOUDY    71  66  84 SW8       29.88F HAZE
BAD AXE        CLOUDY    72  63  73 S7        29.83S
CARO           CLOUDY    75  66  75 S9        29.82S
DETROIT CITY   CLOUDY    74  66  76 SW12      29.88F
DETROIT        CLOUDY    73  66  78 S8        29.88F
GROSSE ILE     CLOUDY    72  68  88 S10       29.88S
HILLSDALE      CLOUDY    73  71  92 S8        29.90S FOG
HOWELL         CLOUDY    73  67  81 S7        29.86S

CITY           SKY/WX    TMP DP  RH WIND       PRES   REMARKS
JACKSON        CLOUDY    74  68  81 S9        29.87S
LAMBERTVILLE   CLOUDY    74  66  75 S7        29.90F
LAPEER         FAIR      73  64  73 S7        29.85F
MASON          MOCLDY    72  66  81 S3        29.86S
MONROE         CLOUDY    72  66  83 S6        29.88S
MT. CLEMENS    CLOUDY    72  66  82 S8        29.85F
PONTIAC        CLOUDY    73  66  78 S6        29.86F
PORT HOPE        N/A     74  64  71 VRB6      29.80F
PORT HURON     CLOUDY    70  66  88 S8        29.87F
TRI CITIES     CLOUDY    75  68  78 SW9       29.82F
MIDLAND        FAIR      72  69  92 SW7       29.80S
TROY           CLOUDY    75  65  70 S6        29.89F
SAGINAW HB     CLOUDY    75  64  69 SW9       29.81S
$$
MIZ043>046-050>051-056>058-064>065-071>073-077>080-070900-
SOUTHWEST LOWER MICHIGAN

CITY           SKY/WX    TMP DP  RH WIND       PRES   REMARKS
BATTLE CREEK   CLOUDY    76  70  82 S12       29.85F
BENTON HARBOR  LGT RAIN  71  69  93 CALM      29.85F
BIG RAPIDS     LGT RAIN  70  67  92 SW6       29.80S
COLDWATER      CLOUDY    74  68  80 SW7       29.88S
FREMONT        DRIZZLE   68  67  98 SW6       29.80F
HOLLAND        CLOUDY    73  66  78 SW8       29.83F
GRAND RAPIDS   CLOUDY    72  68  87 SW7       29.83F
IONIA          LGT RAIN  71  70  95 SW7       29.84S
KALAMAZOO      RAIN      77  70  79 W12       29.86S
LUDINGTON      HVY RAIN  58  56  91 N9G20     29.84S
MARSHALL       CLOUDY    75  70  85 S7        29.86S
MOUNT PLEASANT LGT RAIN  71  69  93 SW8       29.81R
MUSKEGON       CLOUDY    67  65  93 SW12      29.81F
SOUTH HAVEN    RAIN      71  67  87 SW7       29.85S
$$
MIZ016>042-070900-
NORTHERN LOWER MICHIGAN

CITY           SKY/WX    TMP DP  RH WIND       PRES   REMARKS
ALPENA         CLOUDY    72  68  87 SW6       29.76F FOG
BEAVER ISLAND  CLOUDY    55  53  91 NW7       29.85S
BELLAIRE       LGT RAIN  59  56  92 N5        29.85R
CADILLAC       RAIN      58  56  94 NW8G16    29.84R
CHARLEVOIX     LGT RAIN  59  57  94 NW8       29.87S
FRANKFORT      RAIN      60  54  80 N6G17     29.87R
GAYLORD        RAIN      58  58 100 NW9       29.83R FOG
GRAYLING       HVY RAIN  62  61  96 NW13      29.83R
HARBOR SPRINGS CLOUDY    58  56  93 NW3       29.83R FOG
HOUGHTON LAKE  CLOUDY    70  68  93 W12G18    29.80F
MANISTEE       CLOUDY   N/A N/A N/A NE5       29.86R
OSCODA         CLOUDY    71  69  93 S3        29.76F
PELLSTON       CLOUDY    59  57  93 NW9       29.83R FOG
ROGERS CITY    CLOUDY    61  60  96 NW12G20   29.81R FOG
TRAVERSE CITY  LGT RAIN  59  56  89 N10G20    29.84S FOG
$$
MIZ007>008-015-070900-
EASTERN UPPER MICHIGAN

CITY           SKY/WX    TMP DP  RH WIND       PRES   REMARKS
KINROSS        CLOUDY    57  57 100 NW15      29.80R
MACKINAC ISLAN CLOUDY    58  58 100 NW8       29.81R FOG
NEWBERRY       CLOUDY    50  49  97 NW8       29.86R
S. S. MARIE    CLOUDY    54  53  97 NW13      29.79R FOG
$$
MIZ004>006-011>014-085-070900-
CENTRAL UPPER MICHIGAN

CITY           SKY/WX    TMP DP  RH WIND       PRES   REMARKS
MANISTIQUE     CLOUDY    51  48  88 N12       29.87R
ESCANABA       PTCLDY    54  48  82 N9        29.91R
MENOMINEE      CLOUDY    57  48  72 N9G17     29.91R
SAWYER-GWINN   CLEAR     50  45  83 N8        29.94R
$$
MIZ001>003-009>011-084-070900-
WESTERN UPPER MICHIGAN

CITY           SKY/WX    TMP DP  RH WIND       PRES   REMARKS
IRON MOUNTAIN  CLOUDY    55  49  80 NW10      29.94R
HOUGHTON       MOCLDY    48  44  86 NW8       29.97R
COPPER HARBOR    N/A     49  43  80 CALM      29.95R
IRONWOOD       CLOUDY    52  48  87 N5        30.00R
$$

ABBREVIATIONS USED IN REMARKS
   TC - TEMPERATURE IN CELSIUS
  WCI - WIND CHILL INDEX
   HX - HEAT INDEX
  VSB - VISIBILITY



USA.gov is the U.S. government's official web portal to all federal, state and local government web resources and services.